When you browse on this site, cookies collect data to enhance your experience and personalize the content and advertising you see.
Visit our Privacy Policy to learn more. By continuing to use the site, you agree to this use of cookies and data.
  • In Österreich
  • Länderverzeichnis
  • Für 7 Tage
  • Wassertemperatur
  • Wetterkarte
  • News
  • Widgets
  • user-avatar
    Anmelden

    Stündliche Wetter Kiustendil

    Heute, 3 Juni, Mittwoch

    Zeit Temperatur Niederschläge Wind Luftdruck Luftfeuchtigkeit
    00:00 +1°C° 0 mm 1 m/S 618 mmHg 83%
    01:00 +1°C° 0 mm 1 m/S 618 mmHg 82%
    02:00 0°C° 0 mm 1 m/S 618 mmHg 83%
    03:00 0°C° 0 mm 1 m/S 617 mmHg 84%
    04:00 0°C° 0 mm 1 m/S 617 mmHg 84%
    05:00 +2°C° 0 mm 1 m/S 618 mmHg 78%
    06:00 +4°C° 0 mm 1 m/S 619 mmHg 72%
    07:00 +6°C° 0 mm 1 m/S 620 mmHg 66%
    08:00 +8°C° 0 mm 1 m/S 620 mmHg 60%
    09:00 +9°C° 0 mm 1 m/S 621 mmHg 55%
    10:00 +10°C° 0 mm 2 m/S 621 mmHg 49%
    11:00 +10°C° 0 mm 2 m/S 621 mmHg 48%
    12:00 +11°C° 0 mm 3 m/S 621 mmHg 47%
    13:00 +11°C° 0 mm 3 m/S 621 mmHg 46%
    14:00 +11°C° 0.1 mm 3 m/S 621 mmHg 48%
    15:00 +11°C° 0.1 mm 3 m/S 621 mmHg 50%
    16:00 +11°C° 0.1 mm 3 m/S 620 mmHg 53%
    17:00 +9°C° 0.1 mm 2 m/S 620 mmHg 60%
    18:00 +7°C° 0.1 mm 2 m/S 619 mmHg 67%
    19:00 +7°C° 0.1 mm 1 m/S 619 mmHg 75%
    20:00 +6°C° 0 mm 1 m/S 619 mmHg 76%
    21:00 +6°C° 0 mm 1 m/S 619 mmHg 77%
    22:00 +5°C° 0 mm 1 m/S 619 mmHg 78%
    23:00 +5°C° 0 mm 1 m/S 619 mmHg 80%

    Morgen, 4 Juni, Donnerstag

    Zeit Temperatur Niederschläge Wind Luftdruck Luftfeuchtigkeit
    00:00 +4°C° 0 mm 1 m/S 619 mmHg 81%
    01:00 +4°C° 0 mm 1 m/S 619 mmHg 82%
    02:00 +4°C° 0 mm 1 m/S 618 mmHg 83%
    03:00 +4°C° 0 mm 1 m/S 618 mmHg 84%
    04:00 +3°C° 0 mm 1 m/S 618 mmHg 85%
    05:00 +5°C° 0 mm 1 m/S 619 mmHg 80%
    06:00 +8°C° 0 mm 1 m/S 620 mmHg 75%
    07:00 +10°C° 0 mm 1 m/S 621 mmHg 69%
    08:00 +10°C° 0 mm 2 m/S 622 mmHg 64%
    09:00 +13°C° 0 mm 2 m/S 622 mmHg 58%
    10:00 +14°C° 0 mm 2 m/S 623 mmHg 52%
    11:00 +14°C° 0 mm 3 m/S 623 mmHg 50%
    12:00 +16°C° 0 mm 3 m/S 623 mmHg 48%
    13:00 +17°C° 0 mm 4 m/S 624 mmHg 45%
    14:00 +15°C° 0 mm 4 m/S 623 mmHg 48%
    15:00 +15°C° 0 mm 4 m/S 623 mmHg 51%
    16:00 +15°C° 0 mm 4 m/S 623 mmHg 53%
    17:00 +13°C° 0.1 mm 4 m/S 622 mmHg 62%
    18:00 +11°C° 0.1 mm 3 m/S 622 mmHg 70%
    19:00 +9°C° 0.1 mm 2 m/S 621 mmHg 78%
    20:00 +8°C° 0 mm 2 m/S 621 mmHg 80%
    21:00 +7°C° 0 mm 2 m/S 621 mmHg 82%
    22:00 +6°C° 0 mm 2 m/S 621 mmHg 83%
    23:00 +6°C° 0 mm 2 m/S 621 mmHg 84%

    übermorgen, 5 Juni, Freitag

    Zeit Temperatur Niederschläge Wind Luftdruck Luftfeuchtigkeit
    00:00 +6°C° 0 mm 2 m/S 621 mmHg 84%
    01:00 +5°C° 0 mm 2 m/S 621 mmHg 85%
    02:00 +5°C° 0 mm 2 m/S 620 mmHg 86%
    03:00 +5°C° 0 mm 2 m/S 620 mmHg 86%
    04:00 +6°C° 0 mm 1 m/S 620 mmHg 87%
    05:00 +7°C° 0 mm 2 m/S 621 mmHg 81%
    06:00 +9°C° 0 mm 2 m/S 621 mmHg 76%
    07:00 +12°C° 0 mm 2 m/S 622 mmHg 70%
    08:00 +12°C° 0 mm 3 m/S 623 mmHg 63%
    09:00 +14°C° 0 mm 4 m/S 623 mmHg 57%
    10:00 +15°C° 0 mm 5 m/S 623 mmHg 51%
    11:00 +15°C° 0 mm 5 m/S 623 mmHg 51%
    12:00 +16°C° 0 mm 5 m/S 622 mmHg 51%
    13:00 +16°C° 0 mm 5 m/S 622 mmHg 51%
    14:00 +16°C° 0 mm 6 m/S 622 mmHg 53%
    15:00 +15°C° 0 mm 6 m/S 622 mmHg 56%
    16:00 +15°C° 0 mm 6 m/S 622 mmHg 58%
    17:00 +13°C° 0.1 mm 5 m/S 621 mmHg 65%
    18:00 +11°C° 0.1 mm 3 m/S 621 mmHg 73%
    19:00 +10°C° 0.1 mm 2 m/S 620 mmHg 80%
    20:00 +9°C° 0.3 mm 2 m/S 620 mmHg 84%
    21:00 +8°C° 0.3 mm 2 m/S 620 mmHg 88%
    22:00 +8°C° 0.3 mm 2 m/S 621 mmHg 91%
    23:00 +7°C° 0.1 mm 2 m/S 620 mmHg 91%

    6 Juni, Samstag

    Zeit Temperatur Niederschläge Wind Luftdruck Luftfeuchtigkeit
    00:00 +7°C° 0.1 mm 2 m/S 620 mmHg 91%
    01:00 +7°C° 0.1 mm 2 m/S 620 mmHg 91%
    02:00 +7°C° 0.2 mm 1 m/S 620 mmHg 91%
    03:00 +7°C° 0.2 mm 1 m/S 620 mmHg 91%
    04:00 +7°C° 0.2 mm 1 m/S 620 mmHg 91%
    05:00 +9°C° 0 mm 1 m/S 621 mmHg 86%
    06:00 +10°C° 0 mm 1 m/S 622 mmHg 81%
    07:00 +11°C° 0 mm 1 m/S 623 mmHg 75%
    08:00 +12°C° 0.4 mm 1 m/S 623 mmHg 71%
    09:00 +14°C° 0.4 mm 1 m/S 624 mmHg 67%
    10:00 +15°C° 0.4 mm 2 m/S 624 mmHg 62%
    11:00 +15°C° 0.3 mm 2 m/S 624 mmHg 60%
    12:00 +16°C° 0.3 mm 2 m/S 624 mmHg 57%
    13:00 +17°C° 0.3 mm 2 m/S 624 mmHg 55%
    14:00 +17°C° 0.1 mm 2 m/S 624 mmHg 55%
    15:00 +17°C° 0.1 mm 2 m/S 624 mmHg 54%
    16:00 +17°C° 0.1 mm 2 m/S 624 mmHg 54%
    17:00 +15°C° 0 mm 2 m/S 624 mmHg 63%
    18:00 +13°C° 0 mm 1 m/S 623 mmHg 71%
    19:00 +11°C° 0 mm 1 m/S 622 mmHg 80%
    20:00 +10°C° 0 mm 1 m/S 622 mmHg 82%
    21:00 +10°C° 0 mm 1 m/S 622 mmHg 84%
    22:00 +9°C° 0 mm 1 m/S 623 mmHg 86%
    23:00 +8°C° 0 mm 1 m/S 622 mmHg 87%

    7 Juni, Sonntag

    Zeit Temperatur Niederschläge Wind Luftdruck Luftfeuchtigkeit
    00:00 +8°C° 0 mm 1 m/S 622 mmHg 88%
    01:00 +8°C° 0 mm 1 m/S 622 mmHg 90%
    02:00 +8°C° 0 mm 1 m/S 622 mmHg 90%
    03:00 +7°C° 0 mm 1 m/S 622 mmHg 90%
    04:00 +6°C° 0 mm 0 m/S 622 mmHg 91%
    05:00 +9°C° 0 mm 1 m/S 622 mmHg 86%
    06:00 +11°C° 0 mm 1 m/S 623 mmHg 81%
    07:00 +13°C° 0 mm 1 m/S 624 mmHg 76%
    08:00 +14°C° 0.1 mm 1 m/S 625 mmHg 72%
    09:00 +16°C° 0.1 mm 1 m/S 625 mmHg 68%
    10:00 +17°C° 0.1 mm 2 m/S 625 mmHg 65%
    11:00 +17°C° 0.4 mm 2 m/S 625 mmHg 61%
    12:00 +18°C° 0.4 mm 2 m/S 625 mmHg 58%
    13:00 +19°C° 0.4 mm 2 m/S 626 mmHg 54%
    14:00 +19°C° 0.2 mm 2 m/S 625 mmHg 56%
    15:00 +18°C° 0.2 mm 2 m/S 625 mmHg 59%
    16:00 +18°C° 0.2 mm 2 m/S 625 mmHg 61%
    17:00 +16°C° 0.8 mm 2 m/S 624 mmHg 68%
    18:00 +14°C° 0.8 mm 1 m/S 624 mmHg 75%
    19:00 +12°C° 0.8 mm 1 m/S 623 mmHg 83%
    20:00 +11°C° 0.5 mm 1 m/S 623 mmHg 84%
    21:00 +10°C° 0.5 mm 1 m/S 623 mmHg 85%
    22:00 +10°C° 0.5 mm 1 m/S 623 mmHg 86%
    23:00 +9°C° 0 mm 1 m/S 623 mmHg 86%

    8 Juni, Montag

    Zeit Temperatur Niederschläge Wind Luftdruck Luftfeuchtigkeit
    00:00 +9°C° 0 mm 1 m/S 623 mmHg 87%
    01:00 +8°C° 0 mm 0 m/S 622 mmHg 87%
    02:00 +7°C° 0 mm 0 m/S 622 mmHg 88%
    03:00 +8°C° 0 mm 1 m/S 622 mmHg 88%
    04:00 +8°C° 0 mm 1 m/S 622 mmHg 88%
    05:00 +9°C° 0 mm 1 m/S 623 mmHg 84%
    06:00 +11°C° 0 mm 1 m/S 623 mmHg 80%
    07:00 +13°C° 0 mm 1 m/S 624 mmHg 77%
    08:00 +14°C° 0.1 mm 1 m/S 624 mmHg 71%
    09:00 +16°C° 0.1 mm 1 m/S 625 mmHg 65%
    10:00 +17°C° 0.1 mm 2 m/S 625 mmHg 59%
    11:00 +18°C° 0.1 mm 2 m/S 625 mmHg 56%
    12:00 +18°C° 0.1 mm 2 m/S 625 mmHg 53%
    13:00 +19°C° 0.1 mm 3 m/S 625 mmHg 50%
    14:00 +19°C° 0.3 mm 3 m/S 625 mmHg 51%
    15:00 +18°C° 0.3 mm 2 m/S 625 mmHg 52%
    16:00 +18°C° 0.3 mm 2 m/S 624 mmHg 53%
    17:00 +16°C° 0.3 mm 2 m/S 624 mmHg 60%
    18:00 +14°C° 0.3 mm 2 m/S 623 mmHg 67%
    19:00 +12°C° 0.3 mm 1 m/S 623 mmHg 74%
    20:00 +11°C° 0.2 mm 1 m/S 622 mmHg 75%
    21:00 +10°C° 0.2 mm 1 m/S 622 mmHg 77%
    22:00 +9°C° 0.2 mm 1 m/S 622 mmHg 78%
    23:00 +9°C° 0 mm 1 m/S 622 mmHg 78%
    Mehr zeigen